TimeEDT,TemperatureF,Dew PointF,Humidity,Sea Level PressureIn,VisibilityMPH,Wind Direction,Wind SpeedMPH,Gust SpeedMPH,PrecipitationIn,Events,Conditions,WindDirDegrees,DateUTC
12:53 AM,68.0,63.0,84,29.96,10.0,Calm,Calm,-,N/A,,Clear,0,2013-06-12 04:53:00
1:53 AM,69.1,62.1,78,29.95,10.0,Variable,3.5,-,N/A,,Clear,0,2013-06-12 05:53:00
2:53 AM,69.1,62.1,78,29.95,10.0,Calm,Calm,-,N/A,,Clear,0,2013-06-12 06:53:00
3:53 AM,69.1,63.0,81,29.95,10.0,Calm,Calm,-,N/A,,Mostly Cloudy,0,2013-06-12 07:53:00
4:53 AM,69.1,63.0,81,29.95,10.0,Calm,Calm,-,N/A,,Clear,0,2013-06-12 08:53:00
5:53 AM,69.1,63.0,81,29.96,10.0,Calm,Calm,-,N/A,,Clear,0,2013-06-12 09:53:00
6:53 AM,69.1,63.0,81,29.97,10.0,Variable,3.5,-,N/A,,Clear,0,2013-06-12 10:53:00
7:53 AM,71.1,64.9,81,29.97,10.0,Calm,Calm,-,N/A,,Clear,0,2013-06-12 11:53:00
8:53 AM,75.0,66.9,76,29.98,10.0,Variable,3.5,-,N/A,,Clear,0,2013-06-12 12:53:00
9:53 AM,79.0,69.1,72,29.98,10.0,Variable,3.5,-,N/A,,Clear,0,2013-06-12 13:53:00
10:53 AM,82.9,72.0,69,29.99,10.0,Variable,3.5,-,N/A,,Clear,0,2013-06-12 14:53:00
11:53 AM,82.9,71.1,67,30.00,10.0,Variable,3.5,-,N/A,,Clear,0,2013-06-12 15:53:00
12:53 PM,82.9,72.0,69,29.99,10.0,Calm,Calm,-,N/A,,Clear,0,2013-06-12 16:53:00
1:53 PM,84.0,73.0,69,29.97,10.0,Calm,Calm,-,N/A,,Clear,0,2013-06-12 17:53:00
2:53 PM,90.0,73.0,57,29.94,10.0,Variable,3.5,-,N/A,,Scattered Clouds,0,2013-06-12 18:53:00
3:53 PM,89.1,70.0,53,29.92,10.0,Variable,4.6,-,N/A,,Scattered Clouds,0,2013-06-12 19:53:00
4:53 PM,90.0,69.1,50,29.89,10.0,Calm,Calm,-,N/A,,Partly Cloudy,0,2013-06-12 20:53:00
5:53 PM,88.0,70.0,55,29.88,10.0,Calm,Calm,-,N/A,,Clear,0,2013-06-12 21:53:00
6:53 PM,86.0,68.0,55,29.86,10.0,Variable,4.6,-,N/A,,Clear,0,2013-06-12 22:53:00
7:53 PM,82.9,69.1,63,29.85,10.0,Calm,Calm,-,N/A,,Clear,0,2013-06-12 23:53:00
8:53 PM,81.0,66.9,62,29.84,10.0,Variable,4.6,-,N/A,,Clear,0,2013-06-13 00:53:00
9:53 PM,80.1,66.9,64,29.84,10.0,Variable,3.5,-,N/A,,Clear,0,2013-06-13 01:53:00
10:53 PM,79.0,66.9,66,29.85,10.0,Calm,Calm,-,N/A,,Clear,0,2013-06-13 02:53:00
11:53 PM,79.0,66.9,66,29.83,10.0,Variable,3.5,-,N/A,,Clear,0,2013-06-13 03:53:00